Home   Weather   Waren (Müritz)   Past weeks

Flag for Germany Past Weather in Waren (Müritz), Mecklenburg-Western Pomerania, Germany — Yesterday and Last 2 Weeks

Now
36 °F

Fog.


Feels Like: 29 °F
Forecast: 31 / 35 °F
Wind: 9 mph from West

Location: Laage

Current Time: Jan 20, 2017 at 1:08:05 pm

Latest Report: Jan 20, 2017 at 12:20 pm


Visibility: 3 mi

Pressure: 30.54 "Hg

Humidity: 93%

Dew Point: 34 °F

Location of Waren (Müritz)Location

Past Weather in Waren (Müritz) — Graph

°F

Waren (Müritz) Temperature Yesterday

Maximum temperature yesterday: 32 °F (at 12:20 pm)
Minimum temperature yesterday: 28 °F (at 12:20 am)
Average temperature yesterday: 31 °F

High & Low Weather Summary for the Past Weeks

 TemperatureHumidityPressure
High37 °F (Jan 11, 8:20 pm)100% (Jan 7, 9:20 pm)30.77 "Hg (Jan 7, 9:20 pm)
Low14 °F (Jan 6, 3:20 am)54% (Jan 6, 2:20 pm)29.06 "Hg (Jan 13, 7:08 am)
Average30 °F87%30.09 "Hg
* Reported Jan 5 11:20 am — Jan 20 11:20 am, Waren (Müritz), Weather by CustomWeather, © 2017

Note: Actual official high and low records may vary slightly from our data, if they occured in-between our weather recording intervals... More about our weather records

Advertising

Waren (Müritz) Weather History for the Previous 24 Hours

Scroll right to see more
 ConditionsComfort  
Time TempWeatherWind HumidityBarometerVisibility
11:20 am
Fri, Jan 20
36 °FFog.7 mph93%30.54 "Hg2 mi
10:47 am36 °FFog.7 mph93%30.54 "Hg2 mi
10:20 am36 °FFog.7 mph93%30.54 "Hg1 mi
9:20 am36 °FFog.6 mph93%30.54 "Hg1 mi
8:44 am34 °FFog.5 mph100%30.54 "Hg2 mi
8:33 am34 °FFog.7 mph100%30.54 "Hg2 mi
7:48 am34 °FFog.7 mph100%30.54 "Hg2 mi
7:20 am34 °FFog.6 mph100%30.54 "Hg2 mi
6:20 am34 °FFog.6 mph100%30.54 "Hg2 mi
5:42 am34 °FFog.7 mph100%30.54 "Hg2 mi
5:20 am34 °FFog.8 mph100%30.54 "Hg2 mi
4:20 am34 °FFog.7 mph100%30.54 "Hg1 mi
3:20 am34 °FFog.8 mph100%30.54 "Hg1 mi
2:20 am34 °FFog.8 mph100%30.57 "Hg1 mi
1:20 am34 °FFog.6 mph93%30.57 "Hg1 mi
12:20 am34 °FDrizzle. Fog.5 mph93%30.57 "Hg1 mi
11:20 pm
Thu, Jan 19
32 °FDrizzle. Ice fog.5 mph100%30.60 "Hg1 mi
10:20 pm32 °FDrizzle. Ice fog.7 mph100%30.60 "Hg2 mi
9:20 pm32 °FDrizzle. Ice fog.6 mph100%30.60 "Hg1 mi
8:20 pm32 °FDrizzle. Ice fog.6 mph93%30.60 "Hg2 mi
7:42 pm32 °FDrizzle. Ice fog.7 mph93%30.60 "Hg2 mi
7:27 pm32 °FDrizzle. Ice fog.7 mph93%30.60 "Hg1 mi
6:20 pm32 °FDrizzle. Ice fog.6 mph93%30.60 "Hg1 mi
5:20 pm32 °FDrizzle. Ice fog.5 mph93%30.60 "Hg1 mi
5:02 pm32 °FIce fog.5 mph93%30.60 "Hg2 mi
4:20 pm32 °FDrizzle. Ice fog.6 mph87%30.60 "Hg1 mi
3:20 pm32 °FLow clouds.7 mph80%30.60 "HgN/A
2:20 pm32 °FDrizzle. Low clouds.9 mph80%30.60 "Hg4 mi
1:48 pm32 °FLow clouds.9 mph75%30.60 "Hg4 mi
1:20 pm32 °FDrizzle. Low clouds.7 mph75%30.63 "Hg6 mi
Weather by CustomWeather, © 2017

See weather overviewHow to use our weather pages